Regional Weather Roundup
Issued by NWS

Home | Current Version | Previous Version | Text Only | Print | Product List | Glossary Off
Versions: 1 2 3 4 5 6 7 8 9 10 11 12 13 14 15 16 17 18 19 20 21 22 23 24 25 26 27 28 29 30 31 32 33 34 35 36 37 38 39 40 41 42 43 44 45 46 47 48 49 50

000
ASUS43 KMPX 282001
RWRMN
WEATHER ROUNDUP FOR MINNESOTA
NATIONAL WEATHER SERVICE TWIN CITIES/CHANHASSEN MN
300 PM CDT FRI AUG 28 2015


NOTE: "FAIR" INDICATES FEW OR NO CLOUDS BELOW 12,000 FEET WITH NO
SIGNIFICANT WEATHER AND/OR OBSTRUCTIONS TO VISIBILITY. N/A MEANS
CURRENT SKY AND/OR WEATHER CONDITIONS ARE NOT AVAILABLE.

MNZ060>063-068>070-282100-
   Twin Cities Metro

CITY           SKY/WX    TMP DP  RH WIND       PRES   REMARKS
TWIN CITIES    PTSUNNY   76  64  66 SE9       29.99F
ST PAUL        MOSUNNY   75  64  68 S13       30.00S
CRYSTAL        MOSUNNY   78  62  57 S15       29.99R
LAKEVILLE      PTSUNNY   72  64  78 SE14      30.00F
EDEN PRAIRIE   PTSUNNY   75  61  61 SE18      29.98F
SOUTH ST PAUL  MOSUNNY   75  63  65 S8G18     30.00S
LAKE ELMO      FAIR      73  64  73 S10       30.01S
$$
MNZ001>005-007-008-013>017-022>024-027-028-282100-
   Northwest Minnesota

CITY           SKY/WX    TMP DP  RH WIND       PRES   REMARKS
BEMIDJI        MOSUNNY   79  65  61 S16G24    29.89F
HALLOCK        MOSUNNY   82  70  65 W8        29.80S
ROSEAU         MOSUNNY   82  70  65 SW10G20   29.82F
WARROAD        PTSUNNY   79  70  73 SW9       29.83F
THIEF RVR FALL MOSUNNY  N/A N/A N/A S20G25    29.84R
CROOKSTON      SUNNY     82  68  61 SW22G28   29.84S
FOSSTON        PTSUNNY   81  64  57 S21G29    29.89S
DETROIT LAKES  SUNNY     75  64  69 S14       29.95F
MOORHEAD       SUNNY     79  66  65 S14       29.91F
PARK RAPIDS    PTSUNNY   80  64  58 SW14      29.94F
MAHNOMEN       FAIR      77  66  68 S14G25    29.91S
$$
MNZ006-009>011-018-025>026-282100-
   North Central Minnesota

CITY           SKY/WX    TMP DP  RH WIND       PRES   REMARKS
BAUDETTE       CLOUDY    77  69  76 CALM      29.84F
FLAG ISLAND    PTSUNNY   70  64  83 S5        29.83S
INTL FALLS     PTSUNNY   80  69  69 SW8       29.85S
WASKISH        PTSUNNY   79  66  65 S8G16     29.85F
BIG FORK       PTSUNNY   79  66  65 SW8G20    29.91R
LONGVILLE      SUNNY     81  64  57 S10G16    29.94F
GRAND RAPIDS     N/A     79  64  61 S10G16    29.94F
CRANE LAKE     PTSUNNY   72  66  83 S2        29.91R
COOK           PTSUNNY   77  66  69 SW10G16   29.91F
WALKER         MOCLDY    79  64  60 S15       29.93F
$$
MNZ012-019>021-037-282100-
   Northeast Minnesota

CITY           SKY/WX    TMP DP  RH WIND       PRES   REMARKS
DULUTH         MOSUNNY   79  64  60 SW14      29.97F
ELY            PTSUNNY   72  64  78 S9        29.92F
HIBBING        MOSUNNY   79  65  62 S8        29.93F
EVELETH        MOSUNNY   77  64  65 SW12      29.95F
DULUTH HARBOR  MOSUNNY   79  66  65 SW13G20   29.95S
TWO HARBORS    MOSUNNY   81  70  69 SW12G18   29.93F
SILVER BAY     PTSUNNY   79  64  61 SW9G17    29.93S
GRAND MARAIS     N/A     58  52  80 CALM      29.94F
G MARAIS ARPRT MOSUNNY   66  57  72 S8        29.98F
$$
MNZ029>031-032-039>041-046>048-054>057-064-282100-
   West Central Minnesota

CITY           SKY/WX    TMP DP  RH WIND       PRES   REMARKS
FERGUS FALLS   PTSUNNY   77  66  69 S8G16     29.94S
WHEATON        SUNNY     75  64  69 S14G21    29.94F
MORRIS         MOSUNNY   79  64  61 S9        29.96F
ALEXANDRIA     PTSUNNY   77  63  61 S13       30.00R
ELBOW LAKE     FAIR      76  65  68 S12       29.95F
WADENA         SUNNY     79  63  57 S14       29.95F
GLENWOOD       MOSUNNY   79  63  57 S10G20    29.99S
APPLETON       PTSUNNY   79  64  61 S10       29.97R
BENSON         MOSUNNY   79  63  57 SW8       29.97S
ORTONVILLE     MOSUNNY   75  63  64 SE6       29.97S
MADISON        PTSUNNY   75  63  64 S10       29.98R
WILLMAR        PTSUNNY   75  64  69 S10       30.00
$$
MNZ033>034-036-042>043-049>051-058-059-282100-
   Central Minnesota

CITY           SKY/WX    TMP DP  RH WIND       PRES   REMARKS
ST CLOUD       MOSUNNY   79  63  57 S12       29.99R
SAUK CENTRE    FAIR      77  64  63 S8        29.99S
PAYNESVILLE    MOSUNNY   77  60  54 SE8       29.99S
AITKIN         MOSUNNY   81  66  61 S6        29.96F
PINE RIVER     MOSUNNY   79  64  61 SW10G17   29.98F
BRAINERD       SUNNY     79  63  57 SW10      29.98F
STAPLES        MOSUNNY   77  63  61 S8        29.96F
LONG PRAIRIE   PTSUNNY   75  63  64 S9        29.99F
LITTLE FALLS   PTSUNNY   79  61  53 S7        29.99S
LITCHFIELD     MOSUNNY   79  64  61 S7        30.00R
BUFFALO        PTSUNNY   76  61  59 SE10G17   30.00S
MAPLE LAKE     MOSUNNY   78  67  67 SE6       30.00S
$$
MNZ037-044-045-052-053-282100-
   East Central Minnesota

CITY           SKY/WX    TMP DP  RH WIND       PRES   REMARKS
PRINCETON      MOSUNNY   81  63  54 S10G16    29.99S
MORA           MOSUNNY   77  61  57 S8        30.01R
CAMBRIDGE      MOSUNNY   81  63  54 S12       29.98R
RUSH CITY      MOSUNNY   78  62  57 S7G16     30.00S
MOOSE LAKE     SUNNY     79  63  57 S8        29.96F
HINCKLEY       FAIR      79  64  61 S7        30.00S
CLOQUET        PTSUNNY   77  63  61 SW12      29.97F
MCGREGOR       SUNNY     77  63  61 SW10      29.98F
$$
MNZ071>073-080-081-089-090-097-098-282100-
   Southwest Minnesota

CITY           SKY/WX    TMP DP  RH WIND       PRES   REMARKS
MONTEVIDEO     PTSUNNY   79  64  61 S7        29.99S
GRANITE FALLS  MOSUNNY   75  61  62 SE10      29.99S
CANBY          PTSUNNY   74  62  66 SE10      29.99R
MARSHALL       PTSUNNY   72  57  60 SE16      29.99S
REDWOOD FALLS  CLOUDY    71  62  73 SE12      29.98R
OLIVIA         PTSUNNY   72  61  68 SE13G18   29.98F
PIPESTONE      CLOUDY    68  61  77 E12G17    29.97R
WINDOM         PTSUNNY   68  61  77 E20G25    29.96S
WORTHINGTON    CLOUDY    66  57  72 E21G29    29.94S
JACKSON        CLOUDY    64  61  88 E28       29.95F
TRACY          CLOUDY    71  63  75 SE12      29.98S
SLAYTON        CLOUDY    69  63  81 E8G20     29.98S
$$
MNZ065>067-074>077-082>085-091>093-282100-
   South Central Minnesota

CITY           SKY/WX    TMP DP  RH WIND       PRES   REMARKS
MANKATO        PTSUNNY   68  59  73 SE21G29   29.98S
NEW ULM        PTSUNNY   70  61  73 SE15G25   29.98S
ST JAMES       PTSUNNY   66  63  88 SE17G24   29.97F
FAIRMONT       CLOUDY    63  55  77 E18G26    29.96F
GLENCOE        PTSUNNY   77  64  64 SE10G17   29.99R
FARIBAULT      CLOUDY    70  63  78 SE16      30.01F
OWATONNA       CLOUDY    64  61  88 SE15G22   30.01R
WASECA         CLOUDY    63  59  88 MISG      30.01S
ALBERT LEA     DRIZZLE   59  59 100 SE14G22   30.01F
$$
MNZ078>079-086>088-094>096-282100-
   Southeast Minnesota

CITY           SKY/WX    TMP DP  RH WIND       PRES   REMARKS
ROCHESTER      LGT RAIN  60  58  92 S12G18    30.05F FOG
RED WING       PTSUNNY   70  64  83 SE13      30.01F
STANTON        CLOUDY    73  62  69 SE14G22   30.00F
DODGE CENTER   RAIN      61  59  94 SE13      30.03F
WINONA         RAIN      61  59  94 S3        30.06R
AUSTIN         LGT RAIN  61  57  88 SE15G24   30.03F
PRESTON        HVY RAIN  57  56  94 S7        30.08S
$$
ABBREVIATIONS USED IN REMARKS
   TC - TEMPERATURES IN CELSIUS
  WCI - WIND CHILL INDEX
   HX - HEAT INDEX
  VSB - VISIBILITY
$$


USA.gov is the U.S. government's official web portal to all federal, state and local government web resources and services.